Location: Plainartige
(45.6866°N, 1.7993°E)
Time: 09:09:21
(UTC+00:00)

Tiros 1 - Pass Details

Date: 05 June 2022
Orbit: 629 x 663 km, 48.4° (Epoch: 04 July)

Event Time Altitude Azimuth Distance (km) Brightness Sun altitude
Rises 22:43:50 0° 268° (W) 2,912 10.7 -20.0°
Reaches altitude 10° 22:46:10 10° 271° (W) 2,005 9.9 -20.1°
Maximum altitude 22:50:45 64° 353° (N) 699 7.5 -20.3°
Drops below altitude 10° 22:55:21 10° 76° (ENE) 2,013 9.7 -20.5°
Sets 22:57:42 0° 79° (E) 2,925 10.5 -20.6°
